Regional Weather Roundup
Issued by NWS Portland, ME

Current Version | Previous Version | Text Only | Print | Product List | Glossary Off
Versions: 1 2 3 4 5 6 7 8 9 10 11 12 13 14 15 16 17 18 19 20 21 22 23 24 25 26 27 28 29 30 31 32 33 34 35 36 37 38 39 40 41 42 43 44 45 46 47 48 49 50
136 ASUS41 KGYX 290705 RWRGYX WEATHER ROUNDUP FOR MAINE AND NEW HAMPSHIRE NATIONAL WEATHER SERVICE GRAY ME 300 AM EDT THU JUN 29 2017 MEZ002-005-006-010-012-015-018-020-021-024-026-027-029-290800- MAINE CITY SKY/WX TMP DP RH WIND PRES REMARKS PORTLAND CLEAR 56 52 86 SW3 30.05F SANFORD CLEAR 46 46 100 SW3 30.07S BAR HARBOR CLEAR 55 53 93 SW3 30.04S WISCASSET MOCLDY 54 52 93 CALM 30.06S ROCKLAND PTCLDY 51 51 100 W5 30.05R FRYEBURG CLEAR 54 54 100 SW5 30.07R LEWISTONAUBURN CLOUDY 54 52 93 CALM 30.05R AUGUSTA CLOUDY 57 53 86 CALM 30.04F WATERVILLE PTCLDY 53 52 96 CALM 30.01F BANGOR PTCLDY 53 52 96 CALM 30.02F GREENVILLE N/A 53 50 89 CALM 30.01S MILLINOCKET CLOUDY 50 49 96 CALM 30.01R HOULTON PTCLDY 51 50 96 SW5 29.96F PRESQUE ISLE CLEAR 46 46 100 CALM 29.97R FOG FRENCHVILLE CLOUDY 48 47 96 SW6 29.94S CARIBOU CLEAR 49 46 90 SW7 29.96R $$ NHZ002-005-008-009-011-012-014-290800- NEW HAMPSHIRE CITY SKY/WX TMP DP RH WIND PRES REMARKS PORTSMOUTH PTCLDY 58 52 81 W6 30.06R ROCHESTER CLEAR 51 48 89 CALM 30.07R NASHUA PTCLDY 57 53 86 NW3 30.10R MANCHESTER PTCLDY 59 50 72 S5 30.08R CONCORD PTCLDY 51 49 92 CALM 30.09R LACONIA CLEAR N/A N/A N/A W6 30.09R PLYMOUTH FOG 48 47 97 CALM 30.09R VSB 1/4 BERLIN FOG 47 44 90 CALM 30.07R VSB 1/4 WHITEFIELD FOG 47 44 90 CALM 30.08R VSB 1/4 JAFFREY NOT AVBL KEENE CLOUDY 52 51 97 CALM 30.11R LEBANON PTCLDY 50 49 96 NE3 30.08S MT WASHINGTON FOG 39 39 100 W38 N/A VSB 1/16 $$ VTZ005-007-008-290800- VERMONT CITY SKY/WX TMP DP RH WIND PRES REMARKS ST JOHNSBURY N/A 51 51 100 MISG 30.06R MONTPELIER FOG 49 49 100 CALM 30.11R VSB 1/4 BURLINGTON CLEAR 56 52 86 SE5 30.04S $$ MAZ007-012-024-CTZ003-RIZ002-NYZ038-NYZ072-290800- SOUTHERN NEW ENGLAND AND NY CITY SKY/WX TMP DP RH WIND PRES REMARKS BOSTON MOCLDY 65 55 70 SW10 30.09R WORCESTER MOCLDY 58 50 75 W9 30.12S NANTUCKET PTCLDY 63 61 93 W12 30.12S PROVIDENCE PTCLDY 63 59 87 W7 30.12R HARTFORD CLOUDY 60 55 83 S3 30.11S ALBANY CLOUDY 62 53 72 CALM 30.08S NEW YORK CITY MOCLDY 71 55 56 SW9 30.13S $$ ANZ081-ANZ082-ANZ150-NHZ014-MEZ023>029-290800- COASTAL MARINE OBSERVATIONS STATION/POSITION TIME TEMP WIND PRES WAVE AIR SEA DIR/SP/G HT/PER (UTC) (F) (DEG/KT/KT) (MB) (FT/S) MATINICUS ROCK 0600 62 250/ 14/ 15 1016.8F ISLE OF SHOALS 0600 63 230/ 10/ 10 1017.7S JEFFREYS LEDGE 0636 58 N/A 1/ 7 CASHES LEDGE BUO 0550 62 62 1017.7 2/ 3 GEORGES BANK BUO 0550 57 55 1019.4 2/ 8 $$ .............KEY.............. WCI - WIND CHILL TC - TEMPERATURE IN CELSIUS VSB - VISIBILITY IN MILES HX - HEAT INDEX FAIR- INDICATES FEW OR NO CLOUDS BELOW 12,000 FT, WITH NO SIGNIFICANT WEATHER AND/OR OBSTRUCTIONS TO VISIBILITY.

USA.gov is the U.S. government's official web portal to all federal, state and local government web resources and services.